User: anonymous   Login
Location: Theydon Bois
(51.6750°N, 0.1050°E)
Time: 01:15:39
(UTC+01:00)
Language:

NOSS 3-4 (C) - Orbit

View from above orbital plane
View from above orbital plane
View from above satellite
View from above satellite

Ground track
Ground track

The orbit data is extracted from the following two-line orbital elements,

1 31708U 07027C   18198.99354926 0.00000020  00000-0  31162-4 0    01
2 31708  63.4049 154.3586 0227000  21.1272 338.8727 13.40756075    01
Epoch (UTC): 17 July 2018 23:50:42
Eccentricity: 0.0227000
inclination: 63.4049°
perigee height: 936 km
apogee height: 1276 km
right ascension of ascending node: 154.3586°
argument of perigee: 21.1272°
revolutions per day: 13.40756075
mean anomaly at epoch: 338.8727°
orbit number at epoch: 0

The dashed part of the orbit path shows where the satellite is in the earth's shadow,  

DLR